Home   Weather   Glasgow   Past weeks
Flag for United Kingdom

Past Weather in Glasgow, Scotland, United Kingdom — Yesterday and Last 2 Weeks

Now
54 °F

Passing clouds.


Feels Like: 53 °F
Forecast: 63 / 54 °F
Wind: 3 mph from North

Location: Glasgow Airport

Current Time: Jul 18, 2019 at 4:10:14 am

Latest Report: Jul 18, 2019 at 3:20 am


Visibility: N/A

Pressure: 29.65 "Hg

Humidity: 94%

Dew Point: 52 °F

Location of GlasgowLocation

Past Weather in Glasgow — Graph

°F

Glasgow Temperature Yesterday

Maximum temperature yesterday: 63 °F (at 12:20 am)
Minimum temperature yesterday: 54 °F (at 11:50 pm)
Average temperature yesterday: 60 °F

High & Low Weather Summary for the Past Weeks

 TemperatureHumidityPressure
High73 °F (Jul 15, 3:50 pm)100% (Jul 9, 4:20 am)30.39 "Hg (Jul 9, 4:20 am)
Low41 °F (Jul 8, 3:50 am)43% (Jul 7, 4:50 pm)29.65 "Hg (Jul 17, 7:50 pm)
Average59 °F80%30.06 "Hg
* Reported Jul 3 2:20 am — Jul 18 2:50 am, Glasgow. Weather by CustomWeather, © 2019

Note: Actual official high and low records may vary slightly from our data, if they occured in-between our weather recording intervals... More about our weather records

Advertising

Glasgow Weather History for the Previous 24 Hours

Scroll right to see more
 ConditionsComfort  
Time TempWeatherWind HumidityBarometerVisibility
2:50 am
Thu, Jul 18
52 °FPartly cloudy.2 mph100%29.68 "HgN/A
2:20 am52 °FPartly cloudy.8 mph94%29.68 "HgN/A
1:50 am50 °FPassing clouds.5 mph94%29.68 "HgN/A
1:20 am52 °FPassing clouds.5 mph94%29.68 "HgN/A
12:50 am52 °FPassing clouds.7 mph94%29.68 "HgN/A
12:20 am54 °FCool.7 mph88%29.68 "HgN/A
11:50 pm
Wed, Jul 17
54 °FPassing clouds.8 mph94%29.68 "HgN/A
11:20 pm55 °FLight rain. Partly cloudy.9 mph94%29.68 "HgN/A
10:50 pm55 °FLight rain. Partly cloudy.12 mph94%29.65 "HgN/A
10:20 pm59 °FLight rain. Passing clouds.9 mph94%29.65 "HgN/A
9:50 pm59 °FDrizzle. Mostly cloudy.8 mph100%29.65 "Hg3 mi
9:20 pm59 °FDrizzle. Low clouds.5 mph100%29.65 "Hg3 mi
8:50 pm61 °FLight rain. Mostly cloudy.7 mph94%29.65 "Hg5 mi
8:20 pm61 °FMostly cloudy.9 mph94%29.65 "Hg6 mi
7:50 pm61 °FMostly cloudy.12 mph94%29.65 "HgN/A
7:20 pm61 °FPartly sunny.14 mph88%29.68 "Hg4 mi
6:50 pm61 °FMostly cloudy.13 mph88%29.68 "HgN/A
6:20 pm61 °FLight rain. Mostly cloudy.8 mph88%29.71 "HgN/A
5:50 pm61 °FLight rain. Mostly cloudy.10 mph88%29.71 "Hg4 mi
5:20 pm61 °FPartly sunny.14 mph88%29.71 "HgN/A
4:50 pm61 °FLight rain. Mostly cloudy.13 mph88%29.74 "Hg6 mi
4:20 pm61 °FSprinkles. Partly sunny.13 mph88%29.74 "Hg3 mi
3:50 pm61 °FCloudy.15 mph88%29.74 "Hg4 mi
3:20 pm61 °FLight rain. Broken clouds.13 mph88%29.77 "HgN/A
2:50 pm61 °FLight rain. Partly sunny.17 mph83%29.77 "HgN/A
2:20 pm61 °FLight rain. Partly sunny.18 mph83%29.77 "HgN/A
1:50 pm61 °FMore clouds than sun.14 mph88%29.77 "HgN/A
1:20 pm59 °FLight rain. Broken clouds.13 mph88%29.80 "HgN/A
12:50 pm59 °FLight rain. Broken clouds.18 mph94%29.80 "HgN/A
12:20 pm63 °FLight rain. Partly sunny.10 mph77%29.80 "HgN/A
11:50 am63 °FScattered clouds.6 mph77%29.80 "HgN/A
11:20 am61 °FPartly sunny.6 mph83%29.80 "HgN/A
10:50 am61 °FLight rain. Partly sunny.9 mph83%29.83 "HgN/A
10:20 am61 °FLight rain. Partly sunny.14 mph77%29.83 "HgN/A
9:50 am63 °FOvercast.13 mph73%29.83 "HgN/A
9:20 am63 °FOvercast.12 mph77%29.83 "HgN/A
8:50 am63 °FPartly sunny.9 mph83%29.83 "HgN/A
8:20 am63 °FPartly sunny.9 mph83%29.86 "HgN/A
7:50 am63 °FPartly sunny.10 mph83%29.86 "HgN/A
7:20 am63 °FPartly sunny.9 mph83%29.86 "HgN/A
6:50 am63 °FScattered clouds.9 mph83%29.86 "HgN/A
6:20 am61 °FScattered clouds.7 mph88%29.86 "HgN/A
5:50 am61 °FScattered clouds.7 mph88%29.86 "HgN/A
5:20 am59 °FCool.3 mph94%29.86 "HgN/A
4:50 am59 °FCool.2 mph94%29.89 "HgN/A
4:20 am59 °FCool.1 mph94%29.89 "HgN/A
Weather by CustomWeather, © 2019

See weather overview